Qeqertarsuaq

KL  EN  DA
ASIAQ
Weather Now GREENLAND SURVEY
Updated [WGT/WGST] Temperature [°C] Wind [m/s] Air pressure [hPa] Relative humidity [%] Precipitation [mm]
Present Wind chill Speed Max
21.01 20:00-11,3-17,53,4 ⇙4,4996590,0
21.01 19:00-12,6-15,91,4 ⇓2,8996560,0
21.01 18:00-12,2-15,31,3 ⇘2,0996460,0
21.01 17:00-11,4-15,51,9 ⇘4,1996530,0
21.01 16:00-11,9-15,21,5 ⇓3,4996660,0
21.01 15:00-11,7-17,22,7 ⇓4,4995590,0
21.01 14:00-11,0-15,32,1 ⇙5,5995530,0
21.01 13:00-11,2-18,24,3 ⇙5,9995600,0
21.01 12:00-11,70,00,6 ⇓3,5995570,0
21.01 11:00-10,70,00,9 ⇘4,8994550,0
21.01 10:00-10,6-16,93,6 ⇘7,0994620,0
21.01 09:00-10,3-17,04,1 ⇘8,3993570,0
21.01 08:00-10,3-18,66,0 ⇒10,6993710,0
21.01 07:00-9,9-18,97,6 ⇒11,6991860,1
21.01 06:00-8,4-15,65,3 ⇘7,3990760,0
21.01 05:00-8,3-15,04,6 ⇘7,3989720,2
21.01 04:00-7,9-11,41,9 ⇗10,3988951,6
21.01 03:00-7,1-13,85,0 ⇗15,5986850,2
21.01 02:00-6,8-12,94,3 ⇗14,5985960,0
21.01 01:00-6,6-15,810,0 ⇗12,1985800,0
21.01 00:00-7,1-15,98,7 ⇗11,3985790,0
20.01 23:00-7,2-16,08,7 ⇗12,9985860,0
20.01 22:00-6,8-15,79,2 ⇗11,3984930,2
20.01 21:00-6,9-15,89,2 ⇗11,1984890,1
20.01 20:00-6,4-14,47,6 ⇗10,0986820,2
Position: (69.24417,-53.52886)

[Back]